Regional Weather Roundup
Issued by NWS Newport/Morehead, NC

Current Version | Previous Version | Text Only | Print | Product List | Glossary Off
Versions: 1 2 3 4 5 6 7 8 9 10 11 12 13 14 15 16 17 18 19 20 21 22 23 24 25 26 27 28 29 30 31 32 33 34 35 36 37 38 39 40 41 42 43 44 45 46 47 48 49 50
823 ASUS42 KMHX 100125 RWRMHX WEATHER ROUNDUP FOR EASTERN NORTH CAROLINA NATIONAL WEATHER SERVICE NEWPORT/MOREHEAD CITY NC 800 PM EST TUE FEB 09 2016 NOTE: "FAIR" INDICATES FEW OR NO CLOUDS BELOW 12,000 FEET WITH NO SIGNIFICANT WEATHER AND/OR OBSTRUCTIONS TO VISIBILITY NCZ015>017-031-032-045>047-102-103-100200- NORTH COAST CITY SKY/WX TMP DP RH WIND PRES REMARKS EDENTON CLOUDY 42 32 67 W7 29.74R ELIZABETH CITY LGT RAIN 38 32 79 W17G26 29.72R KITTY HAWK CLOUDY 41 33 72 W12G21 29.70R MANTEO CLOUDY 40 34 77 W12G17 29.73R $$ NCZ045>047-081-094-103-104-100200- CENTRAL COAST CITY SKY/WX TMP DP RH WIND PRES REMARKS FRISCO CLOUDY 45 28 51 W17G28 29.73R SWANQUARTER N/A 43 N/A N/A NW6G23 29.74R $$ NCZ095-097-098-100-101-100200- SOUTHERN COAST CITY SKY/WX TMP DP RH WIND PRES REMARKS BEAUFORT MOCLDY 42 27 55 W20G29 29.78R CEDAR ISLAND N/A 43 N/A N/A SW18G28 29.79S JACKSONVILLE CLOUDY 41 25 53 W12 29.80R PINEY ISLAND CLOUDY N/A N/A N/A W16G25 29.76R WILMINGTON PTCLDY 41 24 51 W15 29.82R $$ NCZ011>013-027>030-043-044-078>080-089-090>093-098-100200- COASTAL PLAIN CITY SKY/WX TMP DP RH WIND PRES REMARKS AHOSKIE CLOUDY 38 23 55 W3 29.74R CLINTON MOCLDY 40 24 52 W7G16 29.80S ELIZABETHTOWN CLOUDY 40 24 51 W9 29.82R GOLDSBORO CLOUDY 39 21 48 W13 29.76R GREENVILLE CLOUDY 41 21 45 W7 29.79R HAVELOCK CLOUDY 43 26 51 W14 29.79R KENANSVILLE CLOUDY 40 22 50 W9 29.81R KINSTON CLOUDY 41 21 45 W9 29.78R NEW BERN CLOUDY 42 23 46 W14G21 29.78R RICHLANDS CLOUDY 39 23 52 SW10 29.80R ROCKY MOUNT CLOUDY 38 24 57 W9 29.77R WASHINGTON CLOUDY 40 22 49 W12G17 29.76R WHITEVILLE CLOUDY 40 24 51 W8 29.83R $$ AMZ130-135-150-152-154-156-158-170-250-252-270-ANZ085-086-088-633-658-670-100200- MARINE OBSERVATIONS STATION/POSITION TIME TEMP WIND PRES WAVE SWELL AIR SEA DIR/SP/G HT/PER HT/PER (UTC) (F) (DEG/KT/KT) (MB) (FT/S) (FT/S) CHESAPEAKE LIGHT 0100 42 300/ 7/ 8 1005.2 64 E VA BEACH 0050 46 50 250/ 21/ 27 1003.5 10/14 8/14 DUCK 0100 42 280/ 16/ 21 1005.4 2 E DUCK 0111 45 N/A 6/15 5/15 OREGON INLET 0100 42 46 270/ 11/ 15 1006.2 13E OREGON INLT 0100 47 N/A 9/14 7/14 HATTERAS CG 0100 45 52 260/ 21/ 29 1006.4 DIAMOND BUOY 0050 49 74 280/ 27/ 33 1006.0 10/15 8/15 CAPE LOOKOUT NOT AVBL BEAUFORT LAB 0100 43 48 260/ 9/ 17 1007.4 30 SE NEW RVR IN 0108 46 59 1008.2 30 SE NEW RVR IN 0025 59 N/A 9/ 7 3/15 27 SE WRIGHTSVLE 0108 45 60 360/ 25/ 37 1008.1 5 SE WRIGHTSVLE 0008 44 52 280/ 21/ 33 1009.4 225 S CAPE HAT 0050 58 69 270/ 33/ 41 N/A 18/10 8/15 41 SE CHARLESTON 0050 47 65 280/ 27/ 33 1011.3 9/ 8 2/14 $$

USA.gov is the U.S. government's official web portal to all federal, state and local government web resources and services.